COSMOS 249 DEB *, 4008

Orbit data source: Space-Track

COSMOS 249 DEB *, 4008 is space debris in LEO originally from a launch on Sun, 20 Oct 1968 UTC launched from the Tyuratam Missile And Space Complex (TTMTR). Debris objects in space refer to the collection of defunct objects orbiting the Earth. Examples of debris include non-operational satellites, rocket bodies, and fragments generated from explosions, collisions, or faulty payload assembly.

Loading next visibility...
Identifier
4008, 1968-091BY
Orbit
LEO
Country
Flag of CISCIS
Related business
Manufacturer
Unknown
Mission
Spacecraft
Bus & Motor
Unknown
Mass
Unknown
Launch date (UTC)
1968-10-20 (57 years ago)
Launch vehicle
Unknown
Launch site
Tyuratam Missile And Space Complex (TTMTR)
Object type
Payload
Rocket body
Debris
Shape & HBR
Unknown shape, 0.1 m
Radar Cross Section
Small (<0.1 m²)

Expand to show TLE details & history
Last TLE update: 13 hours ago

TLE from 13 hours ago
0 COSMOS 249 DEB *
1 04008U 68091BY  25340.91869988  .00006261  00000-0  13697-2 0  9991
2 04008  62.8502  47.8074 0518324 178.8912 181.3426 13.98707962813791
Epoch: 2025-12-06T22:02Z
TLE epoch observation values (Epoch: 2025-12-06T22:02:55.669Z)
Latitude
-0.00006°
Longitude
1.13588°
Altitude
1,277.132 km
Speed
7.029 km/s
True Right ascension
03h 11m 13s
True Declination
0° 00' 00"
Sunlit
Object was in full shadow at epoch
Visualization orbit readout
Latitude
Unknown
Longitude
Unknown
Altitude
Unknown
Speed
Unknown
Apparent Right ascension
Unknown
Apparent Declination
Unknown
Sunlit
N/A
Visualization observer readout
Local Sidereal Time
09:10:59
Azimuth
Unknown
Elevation
Unknown
Doppler factor
Unknown
Orbital elements
Apogee altitude
1,274.232 km
Perigee altitude
520.042 km
Semi-major axis
7,275.274 km
Eccentricity
0.05183
Inclination
62.8502°
RAAN
47.8074°
Arg. of periapsis
178.8912°
True anomaly
181.21192°
Mean anomaly
181.3426°
Eccentric anomaly
181.27644°
Mean motion
3.49759 °/min
Orbital period
102.93 mins
BSTAR
0.0013697
Loading maneuver chart data...
Computing Atmospheric mass density...

Documentation

Showing up to 5 results
|